SCP
0 0 0 0 0 0 0 0 0 0 0 0 0 0 0 0 1 1 1 0 0 0 0 0 1 1 1 1 1 0 0 0 0 1 1 1 1 1 1 1 1 1 1 0
0 0 0 0 0 0 0 0 0 0 0 0 0 0 0 0 1 1 1 1 0 0 0 0 1 1 2 1 1 1 0 0 0 1 1 1 1 1 1 1 1 1 1 1
0 0 0 0 0 0 0 0 0 0 0 0 0 0 0 0 1 1 1 1 1 0 0 0 1 1 2 2 2 1 1 1 0 0 1 1 1 1 1 1 1 1 1 1
0 0 0 0 0 0 0 0 0 0 0 0 0 0 0 0 0 1 1 1 1 0 0 0 1 1 2 3 2 2 1 1 1 0 0 1 1 1 1 1 1 1 1 1
0 0 0 0 0 0 0 0 0 0 0 0 0 0 0 0 0 0 1 1 1 0 0 0 1 1 2 3 3 2 1 1 1 0 0 0 1 1 1 1 1 1 1 1
0 0 0 0 0 0 0 0 0 0 0 0 0 0 0 0 0 0 0 1 1 0 0 0 1 1 2 2 2 2 2 1 1 0 0 0 0 0 1 1 1 1 1 1
0 0 0 0 0 0 0 0 0 0 0 0 0 0 0 0 0 0 0 0 0 0 0 0 0 1 1 1 2 2 2 1 1 1 0 0 0 0 0 0 0 0 1 1
0 0 0 0 0 0 0 0 0 0 0 0 0 0 0 0 0 0 0 0 0 0 0 0 0 1 1 1 1 1 1 1 1 1 1 1 1 0 0 0 0 0 0 0
0 0 0 0 0 0 0 0 0 0 0 0 0 0 0 0 0 0 0 0 0 0 0 0 0 0 0 1 1 1 1 1 1 1 1 1 1 1 1 1 1 1 1 1
0 0 0 0 0 0 0 0 0 0 0 0 0 0 0 0 0 0 0 0 0 0 0 0 0 0 0 0 0 0 0 0 0 0 0 1 1 1 1 1 1 1 1 0
0 0 0 0 0 0 0 0 0 0 0 0 0 0 0 0 0 0 0 0 0 0 0 0 0 0 0 0 0 0 0 0 0 0 0 0 0 0 0 1 1 0 0 0
0 0 0 0 0 0 0 0 0 0 0 0 0 0 0 0 0 0 0 0 0 0 0 0 0 0 0 0 0 0 0 0 0 0 0 0 0 0 0 0 0 0 0 0
0 0 0 0 0 0 0 0 0 0 0 0 0 0 0 0 0 0 0 0 0 0 0 0 0 0 0 0 0 0 0 0 0 0 0 0 0 0 0 0 0 0 0 0
0 0 0 0 0 0 0 0 0 0 0 0 0 0 0 0 0 0 0 0 0 0 0 0 0 0 0 0 0 0 0 0 0 0 0 0 0 0 0 0 0 0 0 0
0 0 0 0 0 0 0 0 0 0 0 0 0 0 0 0 0 0 0 0 0 0 0 0 0 0 0 0 0 0 0 0 0 0 0 0 0 0 0 0 0 0 0 0
0 0 0 0 0 0 0 0 0 0 0 0 0 0 0 0 0 0 0 0 0 0 0 0 0 0 0 0 0 0 0 0 0 0 0 0 0 0 0 0 0 0 0 0
0 0 0 0 0 0 0 0 0 0 0 0 0 0 0 0 0 0 0 0 0 0 0 0 0 0 0 0 0 0 0 0 0 0 0 0 0 0 0 0 0 0 0 0
0 0 0 0 0 0 0 0 0 0 0 0 0 0 0 0 0 0 0 0 0 0 0 0 0 0 0 0 0 0 0 0 0 0 0 0 0 0 0 0 0 0 0 0
0 0 0 0 0 0 0 0 0 0 0 0 0 0 0 0 0 0 0 0 0 0 0 0 0 0 0 0 0 0 0 0 0 0 0 0 0 0 0 0 0 0 0 0
0 0 0 0 0 0 0 0 0 0 0 0 0 0 0 0 0 0 0 0 0 0 0 0 0 0 0 0 0 0 0 0 0 0 0 0 0 0 0 0 0 0 0 0
0 0 0 0 0 0 0 0 0 0 0 0 0 0 0 0 0 0 0 0 0 0 0 0 0 0 0 0 0 0 0 0 0 0 0 0 0 0 0 0 0 0 0 0
0 0 0 0 0 0 0 0 0 0 0 0 0 0 0 0 0 0 0 0 0 0 0 0 0 0 0 0 0 0 0 0 0 0 0 0 0 0 0 0 0 0 0 0
0 0 0 0 0 0 0 0 0 0 0 0 0 0 0 0 0 0 0 0 0 0 0 0 0 0 0 0 0 0 0 0 0 0 0 0 0 0 0 0 0 0 0 0
0 0 0 0 0 0 0 0 0 0 0 0 0 0 0 0 0 0 0 0 0 0 0 0 0 0 0 0 0 0 0 0 0 0 0 0 0 0 0 0 0 0 0 0
0 0 0 0 0 0 0 0 0 0 0 0 0 0 0 0 0 0 0 0 0 0 0 0 0 0 0 0 0 0 0 0 0 0 0 0 0 0 0 0 0 0 0 0
0 0 0 0 0 0 0 0 0 0 0 0 0 0 0 0 0 0 0 0 0 0 0 0 0 0 0 0 0 0 0 0 0 0 0 0 0 0 0 0 0 0 0 0
Wind_Speed
4 5 1 2 2 2 1 1 1 2 2 2 0 1 3 2 3 2 2 3 3 3 4 4 4 3 3 4 3 2 2 1 1 1 1 1 1 1 1 1 2 2 2 2
5 2 3 2 1 1 1 1 1 2 3 1 0 2 2 1 0 1 1 1 2 4 6 7 6 5 4 4 3 3 3 2 1 1 1 1 1 0 0 1 2 2 3 2
2 3 3 1 2 1 0 2 2 2 4 2 1 3 2 2 3 3 3 2 3 3 4 5 6 5 5 5 4 3 3 2 2 1 1 2 2 1 1 2 1 2 2 2
2 4 2 2 1 0 2 2 2 1 0 2 0 2 4 2 3 3 2 3 2 3 3 4 5 5 5 4 4 4 4 4 4 3 1 1 1 1 2 1 1 2 2 2
2 3 3 1 2 1 2 1 0 1 1 2 1 2 5 1 2 2 1 1 1 2 2 3 4 3 4 4 4 4 5 5 5 4 3 1 1 1 1 1 2 2 2 2
2 2 1 1 3 1 1 3 3 3 2 2 4 4 5 3 4 3 2 0 1 2 3 3 4 3 4 4 5 5 5 6 5 5 4 4 3 3 3 3 3 2 2 3
5 4 3 2 3 3 3 4 3 3 2 5 2 3 5 4 3 3 2 1 2 3 3 4 5 5 5 5 5 5 5 5 5 5 5 4 3 3 3 3 3 3 3 3
2 4 3 2 0 0 0 4 4 3 3 3 2 4 4 2 0 1 2 2 2 2 3 3 3 3 4 5 5 4 4 4 5 5 4 4 3 2 2 3 3 3 2 3
0 3 3 2 1 2 1 1 3 3 1 1 3 3 4 1 2 2 2 2 2 1 2 2 3 3 3 4 4 4 4 5 5 4 4 4 4 3 3 3 3 2 3 3
1 2 4 4 3 2 2 2 3 3 2 2 3 3 3 2 2 1 1 1 1 1 2 2 2 3 3 3 3 4 4 4 4 5 4 4 4 4 4 3 4 3 3 3
1 1 3 3 1 1 1 1 2 2 3 3 3 6 4 5 4 4 3 2 2 1 1 1 2 2 3 3 3 4 4 4 4 4 4 4 4 4 4 4 4 4 4 4
1 2 2 4 3 2 1 2 3 2 2 2 2 6 2 3 3 3 3 2 1 1 1 1 1 2 2 3 3 3 4 4 4 4 4 4 4 4 4 4 5 5 4 4
1 3 2 5 4 3 1 1 1 1 1 3 4 7 2 1 1 1 2 2 1 1 1 1 2 2 2 2 3 3 3 3 3 3 4 4 4 4 4 5 5 5 5 5
3 2 4 5 4 2 4 4 2 2 3 4 7 7 5 4 3 3 2 2 2 2 1 1 1 1 2 2 2 2 3 3 3 3 3 4 4 4 4 5 5 5 5 5
3 1 3 5 5 4 6 8 6 7 7 8 7 7 9 7 6 4 3 3 2 2 2 2 2 2 2 2 2 2 2 3 3 3 3 3 4 4 4 5 5 5 5 5
1 1 1 4 4 5 7 10 9 9 8 8 8 11 8 5 3 3 4 4 4 4 3 3 2 2 2 2 3 3 3 3 2 2 3 3 4 4 5 5 5 5 5 5
1 2 1 4 5 5 8 9 9 7 7 7 10 9 3 3 5 6 6 5 5 5 3 3 3 3 2 2 2 3 3 2 2 2 3 3 4 4 5 5 5 5 5 5
5 3 2 1 3 6 9 2 5 6 8 8 8 6 6 6 6 5 5 5 5 4 3 3 3 3 2 2 2 2 2 2 2 3 3 3 3 4 4 5 5 5 5 5
5 5 3 2 3 10 10 5 5 5 7 8 9 7 6 3 1 3 4 4 5 4 4 3 3 3 2 2 2 1 2 2 2 3 3 4 4 4 4 5 5 5 5 5
3 4 4 3 3 8 7 3 2 2 7 6 7 8 6 3 3 6 4 4 4 3 2 2 2 1 2 2 1 1 2 2 3 3 4 4 4 4 5 5 5 5 5 5
4 4 5 5 6 12 9 3 4 4 8 4 6 7 7 7 8 5 3 3 3 3 3 2 2 2 3 2 1 2 3 4 4 3 3 3 4 4 4 4 4 4 4 5
9 8 8 6 7 13 6 7 9 10 3 3 4 6 6 6 5 3 4 4 4 3 3 3 2 3 3 2 2 3 4 4 3 3 3 4 4 4 3 4 4 4 4 4
10 11 9 12 12 6 7 10 7 4 4 5 5 5 6 5 5 5 4 5 4 4 4 3 3 3 3 2 2 4 4 2 2 2 3 4 4 3 3 3 4 3 3 3
6 5 5 8 12 9 9 8 7 6 6 6 6 6 6 6 6 6 5 5 4 4 3 3 3 3 4 3 3 4 3 2 2 3 4 3 3 4 3 3 3 3 3 3
8 7 6 9 9 6 9 11 12 9 7 6 6 6 7 7 7 6 5 5 4 4 3 3 3 4 5 3 3 3 3 2 2 3 4 3 3 3 4 4 3 4 4 4
10 11 11 12 10 8 8 7 8 9 9 9 8 7 6 7 7 6 6 5 4 4 3 3 4 4 4 3 4 4 3 2 3 3 3 3 3 3 3 4 5 6 7 9
Wind_Direction
25 60 46 274 225 188 146 139 233 268 311 21 174 285 313 350 39 47 32 32 28 7 354 3 3 6 28 27 30 27 25 18 72 89 141 194 248 302 24 0 360 347 335 313
43 4 283 290 10 75 75 91 338 321 346 1 146 283 294 338 97 148 119 46 19 14 14 12 10 17 21 21 18 21 17 14 3 223 201 166 161 240 356 7 2 356 348 330
105 293 310 60 42 72 293 193 206 250 332 346 42 321 326 349 47 59 56 53 44 38 23 14 19 18 18 15 7 8 10 17 6 8 55 58 58 31 23 354 341 345 339 331
12 325 3 51 14 159 250 230 201 218 334 295 195 264 283 296 1 18 27 22 12 17 32 25 22 17 14 6 7 15 18 22 16 20 48 105 133 242 262 290 313 346 351 351
327 341 11 1 296 271 240 278 239 204 175 290 270 210 279 284 291 298 301 338 338 7 42 32 24 13 6 7 16 19 26 29 23 24 26 42 17 322 342 0 9 353 350 355
293 301 323 288 295 246 237 43 32 36 71 270 239 193 267 242 228 237 249 309 7 18 28 22 11 11 10 13 20 24 27 26 24 27 29 38 33 13 20 12 358 347 351 354
347 336 335 340 359 12 55 76 42 9 0 253 254 198 248 254 226 214 196 113 38 27 27 23 14 13 11 12 15 24 27 21 21 26 26 26 25 21 14 358 352 350 351 347
17 317 315 342 238 255 143 135 153 188 225 277 301 227 257 284 127 116 122 113 74 33 22 20 11 12 11 9 10 17 24 18 17 24 18 18 20 19 11 7 359 354 347 346
122 285 311 311 289 144 124 160 180 142 40 292 270 284 299 30 57 60 72 73 50 14 12 13 6 8 6 8 10 14 18 13 12 17 17 15 14 14 9 1 0 0 350 348
157 274 299 312 357 15 144 147 103 126 140 260 282 261 243 233 224 225 156 149 288 329 13 11 9 14 12 11 14 21 25 23 14 15 13 6 4 5 2 360 358 353 343 347
72 146 314 350 355 263 56 103 110 130 162 175 252 262 228 213 196 193 211 221 241 289 326 342 354 6 13 13 17 20 19 19 14 10 9 6 359 0 1 360 354 347 343 346
21 106 285 282 286 291 188 171 145 165 247 226 234 267 273 192 195 193 219 244 253 266 291 321 347 8 10 8 6 7 10 9 4 5 8 3 357 0 2 358 352 348 343 344
91 102 27 342 332 355 333 276 185 166 165 209 219 261 316 130 180 217 221 252 258 254 292 334 351 352 352 348 349 353 356 356 356 3 5 3 360 0 357 352 347 344 343 343
86 122 173 207 237 260 279 278 248 188 206 230 232 249 266 251 241 251 244 249 248 247 259 275 297 313 324 327 330 338 342 347 349 358 2 359 351 350 348 346 345 343 343 342
92 184 241 261 273 257 252 258 246 223 220 225 240 240 252 242 233 231 229 242 257 253 249 246 262 283 302 320 323 328 334 339 344 352 356 345 341 345 348 348 344 341 341 338
90 172 298 297 297 282 266 252 241 236 234 239 254 264 258 249 227 225 227 230 239 244 245 255 268 277 284 295 307 315 318 326 337 343 338 337 344 348 349 344 339 339 337 332
156 129 133 277 317 347 277 239 216 217 215 206 231 246 243 233 226 221 222 225 231 236 241 251 257 256 266 276 285 288 290 308 324 324 329 338 342 340 337 335 336 334 331 327
158 143 159 288 16 249 247 245 201 222 240 227 236 240 227 229 232 224 211 211 225 227 235 251 259 260 265 271 277 285 296 311 314 315 321 328 330 326 327 331 331 326 321 317
170 153 148 155 260 277 287 256 198 208 261 229 225 238 239 238 303 276 234 207 212 217 225 234 241 246 258 265 269 283 303 310 307 307 311 315 317 316 318 320 319 319 318 318
159 148 149 163 216 248 252 222 184 140 272 239 210 220 216 174 225 254 231 211 221 224 225 233 245 251 263 273 269 265 281 289 286 291 297 303 306 306 306 307 310 315 316 316
163 181 194 200 233 260 250 215 132 181 244 225 196 206 200 205 221 229 205 213 218 227 237 232 227 240 254 264 257 260 270 273 284 296 300 302 302 300 297 301 307 310 314 318
180 181 194 178 212 251 213 157 191 220 232 197 199 206 208 220 229 223 216 219 221 232 241 236 236 258 269 259 237 259 267 279 295 297 296 295 297 297 301 301 306 309 312 312
204 195 188 197 217 238 189 203 220 208 215 220 212 218 208 218 227 227 227 229 231 231 235 233 233 256 272 263 234 248 270 288 291 290 286 288 292 294 293 292 299 309 308 301
235 197 201 242 253 247 239 244 248 230 227 229 222 221 211 223 231 233 234 235 234 238 239 237 235 249 264 266 252 254 275 283 266 271 281 287 289 297 298 292 286 287 287 291
209 184 207 244 259 270 252 233 233 235 237 241 240 228 222 223 232 230 233 235 236 243 247 232 232 248 262 269 263 266 270 256 255 266 274 280 279 283 292 291 282 279 274 271
191 190 195 228 217 206 233 224 217 223 232 232 232 239 233 219 225 228 234 235 233 239 243 242 244 250 261 264 265 269 264 244 244 265 272 273 278 281 283 289 298 291 288 295